Miscellaneous Local Product
Issued by NWS North Platte, NE

Home | Current Version | Previous Version | Text Only | Print | Product List | Glossary On
Versions: 1 2 3 4 5 6 7 8 9 10 11 12 13 14 15 16 17 18 19 20 21 22 23 24 25 26 27 28 29 30 31 32 33 34 35 36 37 38 39 40 41 42 43 44 45 46 47 48 49 50
316
AXUS43 KLBF 130510
MISLBF


WESTERN AND NORTH CENTRAL NEBRASKA HOURLY WEATHER ROUNDUP
NATIONAL WEATHER SERVICE NORTH PLATTE NE
1100 PM CST TUE DEC 12 2017

NOTE: "FAIR" INDICATES FEW OR NO CLOUDS BELOW 12,000 FEET WITH NO
SIGNIFICANT WEATHER AND/OR OBSTRUCTIONS TO VISIBILITY.

NOTE: STATIONS NOT REPORTING VARIABLES SUCH AS SKY/WEATHER OR
PRESSURE ARE PROVIDED BY RAWS AND APRS NETWORKS AND ARE NOT UNDER
NATIONAL WEATHER SERVICE QUALITY CONTROL.

...OBSERVATIONS IN AND NEAR THE EASTERN PANHANDLE OF NEBRASKA...

CITY           SKY/WX    TMP DP  RH WIND       PRES   REMARKS
PINE RIDGE     CLOUDY    40  22  48 SW8       29.91S WCI  34
GORDON         CLOUDY    46  21  37 W16G23    29.89S
CHADRON        CLOUDY    42  19  39 W14       29.94F
ALLIANCE       CLOUDY    30  16  56 W13       29.95F WCI  20
SIDNEY         CLOUDY    40  10  29 W13       30.00R WCI  32
CRESCENT LAKE    N/A     40  14  34 W9G16       N/A  WCI  34
$$

...OBSERVATIONS IN NORTHERN NEBRASKA AND FAR SOUTHERN SOUTH DAKOTA...

CITY           SKY/WX    TMP DP  RH WIND       PRES   REMARKS
WINNER         FAIR      49  20  31 W17       29.72F
VALENTINE      CLOUDY    32  20  61 W7        29.81F WCI  26
THEDFORD       CLEAR     42  21  43 W10       29.85F
AINSWORTH      CLOUDY    43  24  46 W13       29.78F
O`NEILL        CLOUDY    40  24  51 W12       29.75F WCI  34
ORD            CLOUDY    30  18  60 SW3       29.78F
BROKEN BOW     CLEAR     45  21  38 W12       29.82F
VALENTINE NWR    N/A     46  19  33 W9G16       N/A
HALSEY           N/A     47  17  30 W9G16       N/A
BUTTE            N/A     40  23  51 W3          N/A
CHAMBERS         N/A     39  21  48 SW6         N/A  WCI  35
EWING            N/A     41  25  52 W7          N/A
$$

...OBSERVATIONS IN SOUTHWEST NEBRASKA AND FAR NORTHEAST COLORADO...

CITY           SKY/WX    TMP DP  RH WIND       PRES   REMARKS
WRAY           FAIR      32  16  51 W10       29.99F WCI  24
HOLYOKE        FAIR      43  14  31 W14       29.97F
IMPERIAL       CLOUDY    40  15  36 W9        29.94F WCI  34
OGALLALA       CLEAR     36  16  43 W7        29.94S WCI  30
NORTH PLATTE   CLEAR     27  19  72 NW7       29.88F WCI  19
MCCOOK         CLEAR     34  19  54 W10       29.90F WCI  26
LEXINGTON      CLOUDY    33  21  61 NW10      29.85F WCI  24
STAPLETON        N/A     36  20  51 CALM        N/A
GOTHENBURG       N/A     42  18  37 W3          N/A
CALLAWAY         N/A     47  22  37 W8          N/A
$$

...OBSERVATIONS IN CENTRAL LINCOLN COUNTY AREA...

CITY           SKY/WX    TMP DP  RH WIND       PRES   REMARKS
N.P. AIRPORT   CLEAR     27  19  72 NW7       29.88F WCI  19
N.P. DOWNTOWN    N/A     38  22  51 CALM        N/A
N.P. SOUTHEAST   N/A     41  20  42 W3          N/A
N.P. HILLCREST   N/A     35  21  57 W8          N/A  WCI  28
$$

...SOME OBSERVATIONS FROM AROUND THE REGION...

CITY           SKY/WX    TMP DP  RH WIND       PRES   REMARKS
DENVER         CLOUDY    43  11  27 SW12      30.10F
GRAND JUNCTION CLOUDY    25   6  44 E5        30.32S WCI  19
LARAMIE        CLOUDY    36   4  26 SW7       30.17F WCI  30
CHEYENNE       CLOUDY    45   6  20 W20G26    30.09F
CASPER         CLOUDY    37  18  46 W7        30.11R WCI  32
BISMARCK       CLOUDY    48  26  42 NW23G37   29.57S
RAPID CITY     CLOUDY    56  10  16 NW44G58   29.87R
PIERRE         CLOUDY    48  21  34 W16       29.67F
SIOUX FALLS    CLOUDY    37  25  61 SW6       29.63F WCI  32
OMAHA          CLEAR     30  23  75 SE9       29.81F WCI  22
GRAND ISLAND   CLEAR     40  21  46 SW13      29.82F WCI  32
SCOTTSBLUFF    CLOUDY    32  14  47 NW8       30.01R WCI  25
KANSAS CITY    CLEAR     36  27  69 SW14      29.94F WCI  27
HILL CITY      CLEAR     44  19  36 W12       29.91F
WICHITA        CLEAR     34  27  75 S8        29.98F WCI  27
DODGE CITY     CLEAR     45  14  28 SW13      29.99F
OKLAHOMA CITY  CLEAR     33  25  72 S10       30.08F WCI  25
DALLAS         CLEAR     44  28  53 SW8       30.18F
AMARILLO       CLOUDY    47   7  19 W16       30.15F
$$




USA.gov is the U.S. government's official web portal to all federal, state and local government web resources and services.